User: anonymous
Location: Albany
(35.0000°S, 118.0000°E)
Time: 13:35:26
(UTC-04:00)
Language:

SJ-6B - Orbit

View from above orbital plane
View from above orbital plane
View from above satellite
View from above satellite

Ground track
Ground track

The orbit data is extracted from the following two-line orbital elements,

1 28415U 04035C   14107.92333918  .00005287  00000-0  39379-3 0  1766
2 28415 097.8011 112.2686 0061346 074.4273 286.3712 15.01841648524706
Epoch (UTC): 17 April 2014 22:09:36
Eccentricity: 0.0061346
inclination: 97.8011°
perigee height: 518 km
apogee height: 604 km
right ascension of ascending node: 112.2686°
argument of perigee: 74.4273°
revolutions per day: 15.01841648
mean anomaly at epoch: 286.3712°
orbit number at epoch: 52470

The dashed part of the orbit path shows where the satellite is in the earth's shadow,  

DLR